This is the latest recevied weather packets stored in our database for station/object KA3WVU. If no packets are shown the sender has not sent any weather packets the latest 10 day(s).
| Time | Temp. | Humidity | Pressure | Rain* | Wind** | Luminosity | Snow |
|---|---|---|---|---|---|---|---|
| 1777895855 | 7.78° C | 61% | 1011.1 hPa | 0 mm | - | 67 W/m² | - |
| 1777895552 | 7.78° C | 61% | 1011.1 hPa | 0 mm | - | 65 W/m² | - |
| 1777895249 | 7.22° C | 60% | 1010.9 hPa | 0 mm | - | 78 W/m² | - |
| 1777894947 | 7.22° C | 61% | 1011 hPa | 0 mm | - | 73 W/m² | - |
| 1777894644 | 6.67° C | 61% | 1011 hPa | 0 mm | - | 50 W/m² | - |
| 1777894341 | 6.67° C | 64% | 1011 hPa | 0 mm | - | 49 W/m² | - |
| 1777894039 | 6.67° C | 63% | 1010.8 hPa | 0 mm | - | 44 W/m² | - |
| 1777893735 | 6.67° C | 63% | 1010.9 hPa | 0 mm | - | 30 W/m² | - |
| 1777893431 | 6.67° C | 64% | 1011.1 hPa | 0 mm | - | 18 W/m² | - |
| 1777893128 | 6.11° C | 64% | 1010.9 hPa | 0 mm | - | 16 W/m² | - |
| 1777892824 | 6.11° C | 63% | 1010.9 hPa | 0 mm | - | 19 W/m² | - |
| 1777892521 | 6.11° C | 65% | 1011 hPa | 0 mm | - | 14 W/m² | - |
| 1777892216 | 6.11° C | 65% | 1011 hPa | 0 mm | - | 9 W/m² | - |
| 1777891913 | 5.56° C | 64% | 1011 hPa | 0 mm | - | 4 W/m² | - |
| 1777891610 | 6.11° C | 64% | 1011.1 hPa | 0 mm | - | 4 W/m² | - |
| 1777891307 | 5.56° C | 64% | 1011.1 hPa | 0 mm | - | 5 W/m² | - |
| 1777891007 | 5.56° C | 65% | 1011 hPa | 0 mm | - | 2 W/m² | - |
| 1777890701 | 5.56° C | 65% | 1011.1 hPa | 0 mm | - | 2 W/m² | - |
| 1777890398 | 6.11° C | 65% | 1011.2 hPa | 0 mm | - | 2 W/m² | - |
| 1777890093 | 5.56° C | 64% | 1010.9 hPa | 0 mm | - | 3 W/m² | - |
| 1777889792 | 5.56° C | 66% | 1011.1 hPa | 0 mm | - | 2 W/m² | - |
| 1777889489 | 5.56° C | 65% | 1011 hPa | 0 mm | - | 1 W/m² | - |
| 1777889186 | 5.56° C | 64% | 1010.9 hPa | 0 mm | - | 1 W/m² | - |
| 1777888885 | 5° C | 66% | 1011.3 hPa | 0 mm | - | 0 W/m² | - |
| 1777888580 | 5° C | 67% | 1011.1 hPa | 0 mm | - | 0 W/m² | - |
* Rain latest hour (hover to see other rain measurements)
** Current wind speed in m/s (hover to see current wind gust speed)